Tracking 35331 objects as of 16-Sep-2026
HD Live streaming from Space Station
objects crossing your sky now

TRSI-3


TRSI-3 is no longer on orbit
TRSI-3 is classified as:


NORAD ID: 52418
Int'l Code: 2022-047AA
Launch date: May 2, 2022
Source: United States (US)
Launch site: Rocket Lab Launch Complex (RLLC)
Decay date: 2024-06-07

Uplink (MHz):
Downlink (MHz): 437.075
Beacon (MHz): 437.075
Mode: FSK* CW
Call sign:
Status: Reentered

Your satellite tracking list
Your tracking list is empty




NASA's NSSDC Master Catalog

Two Line Element Set (TLE):
1 52418U 22047AA  24158.97405842  .05764336  24649-5  14831-2 0  9997
2 52418  97.3666 253.7119 0016439 270.7857  89.1552 16.28371298118564
Source of the keplerian elements: AFSPC